| time (UTC) | temp F | wind direction | speed MPH | gust MPH | rain 1hr in | rain 24hr in | rain mn in | humidity % | barometer mb |
| 20260904154503 | 82 | 196 | 5.0 | 8.0 | 0.00 | 0.00 | 0.00 | 87 | 1015.6 |
| 20260904154003 | 82 | 196 | 4.0 | 8.0 | 0.00 | 0.00 | 0.00 | 87 | 1015.6 |
| 20260904153503 | 82 | 195 | 4.0 | 8.0 | 0.00 | 0.00 | 0.00 | 87 | 1015.6 |
| 20260904153003 | 82 | 200 | 5.0 | 8.0 | 0.00 | 0.00 | 0.00 | 86 | 1015.7 |
| 20260904152503 | 82 | 204 | 4.0 | 8.0 | 0.00 | 0.00 | 0.00 | 86 | 1015.6 |
| 20260904152003 | 82 | 204 | 4.0 | 6.0 | 0.00 | 0.00 | 0.00 | 86 | 1015.6 |
| 20260904151503 | 82 | 207 | 4.0 | 7.0 | 0.00 | 0.00 | 0.00 | 85 | 1015.7 |
| 20260904151003 | 82 | 199 | 5.0 | 8.0 | 0.00 | 0.00 | 0.00 | 84 | 1015.6 |
| 20260904150503 | 82 | 192 | 4.0 | 8.0 | 0.00 | 0.00 | 0.00 | 84 | 1015.6 |
| 20260904150025 | 82 | 184 | 4.0 | 8.0 | 0.00 | 0.00 | 0.00 | 85 | 1015.6 |
| 20260904145503 | 82 | 170 | 4.0 | 8.0 | 0.00 | 0.00 | 0.00 | 85 | 1015.6 |
| 20260904145003 | 82 | 171 | 4.0 | 6.0 | 0.00 | 0.00 | 0.00 | 85 | 1015.6 |
| 20260904144503 | 82 | 182 | 4.0 | 6.0 | 0.00 | 0.00 | 0.00 | 85 | 1015.7 |
| 20260904144003 | 82 | 180 | 5.0 | 10.0 | 0.00 | 0.00 | 0.00 | 85 | 1015.7 |
| 20260904143503 | 82 | 162 | 4.0 | 10.0 | 0.00 | 0.00 | 0.00 | 86 | 1015.6 |
| 20260904143003 | 82 | 155 | 4.0 | 7.0 | 0.00 | 0.00 | 0.00 | 86 | 1015.5 |
| 20260904142503 | 82 | 169 | 4.0 | 8.0 | 0.00 | 0.00 | 0.00 | 86 | 1015.6 |
| 20260904142003 | 82 | 181 | 4.0 | 8.0 | 0.00 | 0.00 | 0.00 | 87 | 1015.5 |
| 20260904141503 | 81 | 193 | 5.0 | 7.0 | 0.00 | 0.00 | 0.00 | 87 | 1015.5 |
| 20260904141003 | 81 | 189 | 5.0 | 7.0 | 0.00 | 0.00 | 0.00 | 87 | 1015.5 |
| 20260904140524 | 81 | 180 | 4.0 | 7.0 | 0.00 | 0.00 | 0.00 | 87 | 1015.4 |
| 20260904140024 | 81 | 169 | 4.0 | 7.0 | 0.00 | 0.00 | 0.00 | 88 | 1015.5 |
| 20260904135503 | 81 | 163 | 2.0 | 6.0 | 0.00 | 0.00 | 0.00 | 88 | 1015.5 |
| 20260904135003 | 81 | 181 | 2.0 | 7.0 | 0.00 | 0.00 | 0.00 | 89 | 1015.4 |
| 20260904134503 | 81 | 176 | 2.0 | 7.0 | 0.00 | 0.00 | 0.00 | 89 | 1015.3 |
| 20260904134003 | 81 | 131 | 2.0 | 6.0 | 0.00 | 0.00 | 0.00 | 89 | 1015.3 |
| 20260904133503 | 81 | 109 | 2.0 | 5.0 | 0.00 | 0.00 | 0.00 | 89 | 1015.2 |
| 20260904133003 | 81 | 143 | 2.0 | 6.0 | 0.00 | 0.00 | 0.00 | 89 | 1015.2 |
| 20260904132503 | 80 | 162 | 2.0 | 6.0 | 0.00 | 0.00 | 0.00 | 89 | 1015.2 |
| 20260904132003 | 80 | 142 | 2.0 | 5.0 | 0.00 | 0.00 | 0.00 | 89 | 1015.1 |
| 20260904131503 | 80 | 154 | 2.0 | 7.0 | 0.00 | 0.00 | 0.00 | 89 | 1015.1 |
| 20260904131024 | 80 | 149 | 4.0 | 7.0 | 0.00 | 0.00 | 0.00 | 89 | 1015.1 |
| 20260904130503 | 80 | 132 | 4.0 | 6.0 | 0.00 | 0.00 | 0.00 | 89 | 1015.1 |
| 20260904130003 | 80 | 140 | 4.0 | 8.0 | 0.00 | 0.00 | 0.00 | 89 | 1015.0 |
| 20260904125503 | 80 | 151 | 4.0 | 8.0 | 0.00 | 0.00 | 0.00 | 89 | 1015.0 |
| 20260904125003 | 80 | 149 | 4.0 | 8.0 | 0.00 | 0.00 | 0.00 | 89 | 1015.0 |
| 20260904124504 | 80 | 143 | 4.0 | 7.0 | 0.00 | 0.00 | 0.00 | 89 | 1015.0 |
| 20260904124004 | 80 | 151 | 4.0 | 7.0 | 0.00 | 0.00 | 0.00 | 89 | 1014.9 |
| 20260904123504 | 80 | 147 | 5.0 | 8.0 | 0.00 | 0.00 | 0.00 | 89 | 1014.9 |
| 20260904123025 | 80 | 148 | 4.0 | 8.0 | 0.00 | 0.00 | 0.00 | 89 | 1014.9 |
| 20260904122504 | 80 | 147 | 4.0 | 6.0 | 0.00 | 0.00 | 0.00 | 89 | 1014.8 |
| 20260904122004 | 80 | 141 | 4.0 | 8.0 | 0.00 | 0.00 | 0.00 | 89 | 1014.6 |
| 20260904121504 | 80 | 141 | 4.0 | 10.0 | 0.00 | 0.00 | 0.00 | 89 | 1014.5 |
| 20260904121004 | 80 | 133 | 5.0 | 10.0 | 0.00 | 0.00 | 0.00 | 89 | 1014.4 |
| 20260904120504 | 80 | 130 | 5.0 | 10.0 | 0.00 | 0.00 | 0.00 | 89 | 1014.4 |
| 20260904120004 | 80 | 123 | 5.0 | 11.0 | 0.00 | 0.00 | 0.00 | 89 | 1014.3 |
| 20260904115504 | 80 | 119 | 5.0 | 11.0 | 0.00 | 0.00 | 0.00 | 89 | 1014.4 |
| 20260904115025 | 80 | 121 | 5.0 | 11.0 | 0.00 | 0.00 | 0.00 | 89 | 1014.3 |
| 20260904114525 | 80 | 123 | 5.0 | 11.0 | 0.00 | 0.00 | 0.00 | 89 | 1014.3 |
| 20260904114004 | 80 | 122 | 5.0 | 10.0 | 0.00 | 0.00 | 0.00 | 89 | 1014.2 |
| 20260904113504 | 80 | 126 | 4.0 | 11.0 | 0.00 | 0.00 | 0.00 | 88 | 1014.2 |
| 20260904113004 | 80 | 134 | 4.0 | 11.0 | 0.00 | 0.00 | 0.00 | 88 | 1014.0 |
| 20260904112504 | 80 | 134 | 4.0 | 11.0 | 0.00 | 0.00 | 0.00 | 88 | 1014.1 |
| 20260904112004 | 80 | 128 | 4.0 | 11.0 | 0.00 | 0.00 | 0.00 | 88 | 1014.1 |
| 20260904111504 | 80 | 122 | 4.0 | 8.0 | 0.00 | 0.00 | 0.00 | 88 | 1014.1 |
| 20260904111004 | 80 | 118 | 5.0 | 10.0 | 0.00 | 0.00 | 0.00 | 88 | 1014.0 |
| 20260904110504 | 80 | 119 | 5.0 | 11.0 | 0.00 | 0.00 | 0.00 | 88 | 1014.0 |
| 20260904110004 | 80 | 118 | 5.0 | 11.0 | 0.00 | 0.00 | 0.00 | 88 | 1014.0 |
| 20260904105504 | 80 | 121 | 5.0 | 10.0 | 0.00 | 0.00 | 0.00 | 88 | 1014.0 |
| 20260904105004 | 80 | 123 | 4.0 | 8.0 | 0.00 | 0.00 | 0.00 | 88 | 1013.8 |
| 20260904104504 | 80 | 125 | 4.0 | 7.0 | 0.00 | 0.00 | 0.00 | 87 | 1013.7 |
| 20260904104004 | 80 | 143 | 4.0 | 7.0 | 0.00 | 0.00 | 0.00 | 87 | 1013.7 |
| 20260904103504 | 80 | 153 | 4.0 | 8.0 | 0.00 | 0.00 | 0.00 | 87 | 1013.6 |
| 20260904103004 | 80 | 154 | 4.0 | 8.0 | 0.00 | 0.00 | 0.00 | 87 | 1013.6 |
| 20260904102504 | 80 | 161 | 4.0 | 6.0 | 0.00 | 0.00 | 0.00 | 87 | 1013.6 |
| 20260904102004 | 80 | 158 | 4.0 | 6.0 | 0.00 | 0.00 | 0.00 | 87 | 1013.6 |
| 20260904101504 | 80 | 162 | 4.0 | 8.0 | 0.00 | 0.00 | 0.00 | 87 | 1013.6 |
| 20260904101025 | 80 | 163 | 4.0 | 8.0 | 0.00 | 0.00 | 0.00 | 87 | 1013.6 |
| 20260904100504 | 80 | 156 | 4.0 | 7.0 | 0.00 | 0.00 | 0.00 | 87 | 1013.6 |
| 20260904100004 | 80 | 157 | 4.0 | 10.0 | 0.00 | 0.00 | 0.00 | 87 | 1013.6 |
| 20260904095525 | 80 | 153 | 4.0 | 10.0 | 0.00 | 0.00 | 0.00 | 87 | 1013.7 |
| 20260904095025 | 80 | 151 | 4.0 | 10.0 | 0.00 | 0.00 | 0.00 | 87 | 1013.7 |
| 20260904094504 | 80 | 162 | 5.0 | 10.0 | 0.00 | 0.00 | 0.00 | 87 | 1013.6 |
| 20260904094004 | 80 | 161 | 5.0 | 11.0 | 0.00 | 0.00 | 0.00 | 87 | 1013.4 |
| 20260904093525 | 80 | 161 | 5.0 | 11.0 | 0.00 | 0.00 | 0.00 | 87 | 1013.5 |
| 20260904093004 | 80 | 174 | 4.0 | 7.0 | 0.00 | 0.00 | 0.00 | 87 | 1013.4 |
| 20260904092504 | 80 | 178 | 4.0 | 7.0 | 0.00 | 0.00 | 0.00 | 86 | 1013.5 |
| 20260904092004 | 80 | 176 | 4.0 | 8.0 | 0.00 | 0.00 | 0.00 | 86 | 1013.4 |
| 20260904091503 | 80 | 173 | 5.0 | 8.0 | 0.00 | 0.00 | 0.00 | 86 | 1013.4 |
| 20260904091025 | 80 | 173 | 4.0 | 8.0 | 0.00 | 0.00 | 0.00 | 86 | 1013.4 |
| 20260904090504 | 80 | 174 | 5.0 | 11.0 | 0.00 | 0.00 | 0.00 | 86 | 1013.3 |
| 20260904090004 | 80 | 170 | 4.0 | 11.0 | 0.00 | 0.00 | 0.00 | 86 | 1013.5 |
| 20260904085504 | 80 | 165 | 4.0 | 7.0 | 0.00 | 0.00 | 0.00 | 86 | 1013.5 |
| 20260904085004 | 80 | 169 | 4.0 | 7.0 | 0.00 | 0.00 | 0.00 | 86 | 1013.5 |
| 20260904084504 | 80 | 171 | 4.0 | 8.0 | 0.00 | 0.00 | 0.00 | 86 | 1013.4 |
| 20260904084004 | 80 | 166 | 5.0 | 10.0 | 0.00 | 0.00 | 0.00 | 86 | 1013.4 |
| 20260904083504 | 80 | 168 | 5.0 | 10.0 | 0.00 | 0.00 | 0.00 | 85 | 1013.4 |
| 20260904083004 | 81 | 172 | 5.0 | 10.0 | 0.00 | 0.00 | 0.00 | 85 | 1013.4 |
| 20260904082504 | 81 | 170 | 5.0 | 10.0 | 0.00 | 0.00 | 0.00 | 85 | 1013.4 |
| 20260904082004 | 81 | 167 | 5.0 | 10.0 | 0.00 | 0.00 | 0.00 | 85 | 1013.4 |
| 20260904081504 | 81 | 173 | 5.0 | 10.0 | 0.00 | 0.00 | 0.00 | 85 | 1013.4 |
| 20260904081025 | 81 | 178 | 5.0 | 11.0 | 0.00 | 0.00 | 0.00 | 84 | 1013.4 |
| 20260904080525 | 81 | 169 | 5.0 | 11.0 | 0.00 | 0.00 | 0.00 | 84 | 1013.4 |
| 20260904080004 | 81 | 170 | 5.0 | 10.0 | 0.00 | 0.00 | 0.00 | 84 | 1013.4 |
| 20260904075504 | 81 | 173 | 6.0 | 11.0 | 0.00 | 0.00 | 0.00 | 84 | 1013.4 |
| 20260904075025 | 81 | 171 | 6.0 | 11.0 | 0.00 | 0.00 | 0.00 | 84 | 1013.5 |
| 20260904074504 | 81 | 171 | 6.0 | 13.0 | 0.00 | 0.00 | 0.00 | 84 | 1013.5 |
| 20260904074024 | 81 | 170 | 6.0 | 13.0 | 0.00 | 0.00 | 0.00 | 84 | 1013.6 |
| 20260904073503 | 81 | 168 | 5.0 | 11.0 | 0.00 | 0.00 | 0.00 | 84 | 1013.7 |
| 20260904073004 | 81 | 170 | 5.0 | 16.0 | 0.00 | 0.00 | 0.00 | 84 | 1013.7 |
| 20260904072504 | 81 | 166 | 6.0 | 16.0 | 0.00 | 0.00 | 0.00 | 84 | 1013.7 |
| 20260904072025 | 81 | 162 | 6.0 | 13.0 | 0.00 | 0.00 | 0.00 | 84 | 1013.8 |
| 20260904071503 | 81 | 165 | 5.0 | 13.0 | 0.00 | 0.00 | 0.00 | 84 | 1013.7 |
| 20260904071003 | 81 | 167 | 5.0 | 11.0 | 0.00 | 0.00 | 0.00 | 84 | 1013.8 |
| 20260904070503 | 81 | 167 | 5.0 | 11.0 | 0.00 | 0.00 | 0.00 | 84 | 1013.8 |
| 20260904070004 | 81 | 167 | 6.0 | 17.0 | 0.00 | 0.00 | 0.00 | 84 | 1013.8 |
| 20260904065504 | 81 | 169 | 6.0 | 17.0 | 0.00 | 0.00 | 0.00 | 84 | 1013.9 |
| 20260904065004 | 81 | 171 | 6.0 | 13.0 | 0.00 | 0.00 | 0.00 | 84 | 1014.0 |
| 20260904064504 | 81 | 172 | 6.0 | 13.0 | 0.00 | 0.00 | 0.00 | 83 | 1014.0 |
| 20260904064003 | 81 | 176 | 6.0 | 12.0 | 0.00 | 0.00 | 0.00 | 83 | 1013.9 |
| 20260904063524 | 81 | 173 | 5.0 | 11.0 | 0.00 | 0.00 | 0.00 | 83 | 1014.0 |
| 20260904063004 | 81 | 160 | 5.0 | 10.0 | 0.00 | 0.00 | 0.00 | 83 | 1014.0 |
| 20260904062504 | 81 | 161 | 5.0 | 11.0 | 0.00 | 0.00 | 0.00 | 83 | 1014.0 |
| 20260904062024 | 81 | 162 | 5.0 | 11.0 | 0.00 | 0.00 | 0.00 | 83 | 1013.9 |
| 20260904061503 | 81 | 160 | 5.0 | 11.0 | 0.00 | 0.00 | 0.00 | 83 | 1013.9 |
| 20260904061004 | 81 | 157 | 5.0 | 11.0 | 0.00 | 0.00 | 0.00 | 83 | 1014.0 |
| 20260904060503 | 81 | 158 | 5.0 | 10.0 | 0.00 | 0.00 | 0.00 | 82 | 1014.0 |
| 20260904060004 | 81 | 159 | 6.0 | 11.0 | 0.00 | 0.00 | 0.00 | 82 | 1014.0 |
| 20260904055504 | 81 | 155 | 6.0 | 12.0 | 0.00 | 0.00 | 0.00 | 82 | 1014.0 |
| 20260904055003 | 81 | 150 | 5.0 | 12.0 | 0.00 | 0.00 | 0.00 | 82 | 1014.0 |
| 20260904054524 | 81 | 153 | 5.0 | 12.0 | 0.00 | 0.00 | 0.00 | 81 | 1014.0 |
| 20260904054003 | 81 | 154 | 5.0 | 12.0 | 0.00 | 0.00 | 0.00 | 81 | 1013.9 |
| 20260904053504 | 81 | 158 | 5.0 | 11.0 | 0.00 | 0.00 | 0.00 | 81 | 1013.9 |
| 20260904053004 | 81 | 151 | 5.0 | 12.0 | 0.00 | 0.00 | 0.00 | 81 | 1013.8 |
| 20260904052503 | 81 | 143 | 5.0 | 12.0 | 0.00 | 0.00 | 0.00 | 80 | 1013.8 |
| 20260904052024 | 81 | 143 | 5.0 | 10.0 | 0.00 | 0.00 | 0.00 | 80 | 1013.8 |
| 20260904051525 | 81 | 139 | 5.0 | 10.0 | 0.00 | 0.00 | 0.00 | 80 | 1013.8 |
| 20260904051003 | 81 | 135 | 5.0 | 10.0 | 0.00 | 0.00 | 0.00 | 80 | 1013.8 |
| 20260904050504 | 81 | 138 | 4.0 | 8.0 | 0.00 | 0.00 | 0.00 | 80 | 1013.7 |
| 20260904050004 | 81 | 136 | 4.0 | 8.0 | 0.00 | 0.00 | 0.00 | 80 | 1013.7 |
| 20260904045503 | 81 | 139 | 4.0 | 10.0 | 0.00 | 0.00 | 0.00 | 80 | 1013.7 |
| 20260904045004 | 81 | 139 | 5.0 | 10.0 | 0.00 | 0.00 | 0.00 | 79 | 1013.8 |
| 20260904044504 | 81 | 132 | 5.0 | 10.0 | 0.00 | 0.00 | 0.00 | 79 | 1013.8 |
| 20260904044003 | 81 | 131 | 4.0 | 10.0 | 0.00 | 0.00 | 0.00 | 79 | 1013.7 |
| 20260904043504 | 81 | 126 | 5.0 | 8.0 | 0.00 | 0.00 | 0.00 | 79 | 1013.7 |
| 20260904043004 | 81 | 122 | 5.0 | 8.0 | 0.00 | 0.00 | 0.00 | 79 | 1013.7 |
| 20260904042503 | 81 | 121 | 5.0 | 11.0 | 0.00 | 0.00 | 0.00 | 78 | 1013.6 |
| 20260904042024 | 81 | 123 | 6.0 | 11.0 | 0.00 | 0.00 | 0.00 | 78 | 1013.7 |
| 20260904041503 | 81 | 125 | 5.0 | 11.0 | 0.00 | 0.00 | 0.00 | 78 | 1013.6 |
| 20260904041003 | 82 | 128 | 5.0 | 11.0 | 0.00 | 0.00 | 0.00 | 78 | 1013.6 |
| 20260904040503 | 82 | 131 | 5.0 | 11.0 | 0.00 | 0.00 | 0.00 | 77 | 1013.7 |
| 20260904040003 | 82 | 130 | 5.0 | 12.0 | 0.00 | 0.00 | 0.00 | 77 | 1013.6 |
| 20260904035503 | 82 | 127 | 5.0 | 12.0 | 0.00 | 0.00 | 0.00 | 77 | 1013.6 |
| 20260904035004 | 82 | 118 | 4.0 | 10.0 | 0.00 | 0.00 | 0.00 | 77 | 1013.6 |
| 20260904034525 | 82 | 112 | 4.0 | 8.0 | 0.00 | 0.00 | 0.00 | 77 | 1013.6 |
| 20260904034003 | 82 | 114 | 4.0 | 8.0 | 0.00 | 0.00 | 0.00 | 76 | 1013.7 |
| 20260904033503 | 82 | 117 | 4.0 | 10.0 | 0.00 | 0.00 | 0.00 | 76 | 1013.7 |
| 20260904033003 | 82 | 114 | 4.0 | 10.0 | 0.00 | 0.00 | 0.00 | 76 | 1013.5 |
| 20260904032503 | 83 | 113 | 5.0 | 10.0 | 0.00 | 0.00 | 0.00 | 76 | 1013.4 |
| 20260904032024 | 83 | 111 | 5.0 | 12.0 | 0.00 | 0.00 | 0.00 | 75 | 1013.3 |
| 20260904031503 | 83 | 112 | 6.0 | 12.0 | 0.00 | 0.00 | 0.00 | 75 | 1013.4 |
| 20260904031003 | 83 | 114 | 6.0 | 12.0 | 0.00 | 0.00 | 0.00 | 75 | 1013.2 |
| 20260904030503 | 83 | 116 | 5.0 | 11.0 | 0.00 | 0.00 | 0.00 | 74 | 1013.2 |
| 20260904030003 | 83 | 113 | 5.0 | 11.0 | 0.00 | 0.00 | 0.00 | 74 | 1013.1 |
| 20260904025503 | 84 | 113 | 5.0 | 11.0 | 0.00 | 0.00 | 0.00 | 73 | 1013.1 |
| 20260904025024 | 84 | 113 | 5.0 | 11.0 | 0.00 | 0.00 | 0.00 | 73 | 1013.1 |
| 20260904024524 | 84 | 114 | 5.0 | 10.0 | 0.00 | 0.00 | 0.00 | 72 | 1013.1 |
| 20260904024003 | 84 | 108 | 5.0 | 13.0 | 0.00 | 0.00 | 0.00 | 72 | 1013.0 |
| 20260904023504 | 84 | 105 | 6.0 | 13.0 | 0.00 | 0.00 | 0.00 | 72 | 1012.9 |
| 20260904023003 | 84 | 112 | 6.0 | 11.0 | 0.00 | 0.00 | 0.00 | 71 | 1012.8 |
| 20260904022503 | 84 | 108 | 6.0 | 13.0 | 0.00 | 0.00 | 0.00 | 71 | 1012.9 |
| 20260904022025 | 84 | 104 | 6.0 | 13.0 | 0.00 | 0.00 | 0.00 | 71 | 1012.9 |
| 20260904021503 | 85 | 102 | 4.0 | 10.0 | 0.00 | 0.00 | 0.00 | 71 | 1012.9 |
| 20260904021003 | 85 | 103 | 4.0 | 8.0 | 0.00 | 0.00 | 0.00 | 70 | 1012.8 |
| 20260904020524 | 85 | 110 | 5.0 | 11.0 | 0.00 | 0.00 | 0.00 | 70 | 1012.7 |
| 20260904020003 | 85 | 113 | 7.0 | 12.0 | 0.00 | 0.00 | 0.00 | 70 | 1012.4 |
| 20260904015503 | 85 | 113 | 7.0 | 13.0 | 0.00 | 0.00 | 0.00 | 70 | 1012.2 |
| 20260904015024 | 85 | 117 | 6.0 | 13.0 | 0.00 | 0.00 | 0.00 | 70 | 1012.1 |
| 20260904014503 | 85 | 119 | 6.0 | 12.0 | 0.00 | 0.00 | 0.00 | 69 | 1012.0 |
| 20260904014003 | 85 | 117 | 6.0 | 12.0 | 0.00 | 0.00 | 0.00 | 69 | 1012.0 |
| 20260904013503 | 86 | 117 | 6.0 | 14.0 | 0.00 | 0.00 | 0.00 | 69 | 1012.1 |
| 20260904013003 | 86 | 114 | 7.0 | 14.0 | 0.00 | 0.00 | 0.00 | 68 | 1012.1 |
| 20260904012503 | 86 | 117 | 7.0 | 13.0 | 0.00 | 0.00 | 0.00 | 68 | 1012.0 |
| 20260904012003 | 86 | 115 | 8.0 | 17.0 | 0.00 | 0.00 | 0.00 | 68 | 1012.0 |
| 20260904011525 | 86 | 112 | 8.0 | 17.0 | 0.00 | 0.00 | 0.00 | 67 | 1011.9 |
| 20260904011003 | 86 | 114 | 6.0 | 14.0 | 0.00 | 0.00 | 0.00 | 67 | 1012.1 |
| 20260904010503 | 86 | 110 | 6.0 | 16.0 | 0.00 | 0.00 | 0.00 | 66 | 1012.0 |
| 20260904010003 | 87 | 117 | 7.0 | 16.0 | 0.00 | 0.00 | 0.00 | 66 | 1012.0 |
| 20260904005503 | 87 | 121 | 8.0 | 16.0 | 0.00 | 0.00 | 0.00 | 65 | 1012.0 |
| 20260904005003 | 87 | 116 | 8.0 | 16.0 | 0.00 | 0.00 | 0.00 | 65 | 1012.1 |
| 20260904004503 | 88 | 115 | 7.0 | 16.0 | 0.00 | 0.00 | 0.00 | 64 | 1012.0 |
| 20260904004025 | 88 | 113 | 6.0 | 13.0 | 0.00 | 0.00 | 0.00 | 64 | 1011.9 |
| 20260904003504 | 88 | 110 | 7.0 | 13.0 | 0.00 | 0.00 | 0.00 | 63 | 1011.9 |
| 20260904003004 | 89 | 111 | 7.0 | 16.0 | 0.00 | 0.00 | 0.00 | 63 | 1011.9 |
| 20260904002504 | 89 | 110 | 8.0 | 17.0 | 0.00 | 0.00 | 0.00 | 62 | 1011.9 |
| 20260904002004 | 89 | 109 | 10.0 | 19.0 | 0.00 | 0.00 | 0.00 | 61 | 1011.9 |
| 20260904001504 | 89 | 111 | 8.0 | 19.0 | 0.00 | 0.00 | 0.00 | 61 | 1011.8 |
| 20260904001004 | 89 | 116 | 6.0 | 16.0 | 0.00 | 0.00 | 0.00 | 60 | 1011.8 |
| 20260904000504 | 90 | 114 | 6.0 | 13.0 | 0.00 | 0.00 | 0.00 | 60 | 1011.7 |
| 20260904000004 | 90 | 110 | 7.0 | 17.0 | 0.00 | 0.00 | 0.00 | 60 | 1011.8 |
| 20260903235504 | 90 | 116 | 6.0 | 17.0 | 0.00 | 0.00 | 0.00 | 61 | 1011.9 |
| 20260903235025 | 90 | 123 | 7.0 | 17.0 | 0.00 | 0.00 | 0.00 | 61 | 1011.8 |
| 20260903234504 | 90 | 126 | 8.0 | 17.0 | 0.00 | 0.00 | 0.00 | 59 | 1011.8 |
| 20260903234004 | 91 | 121 | 10.0 | 18.0 | 0.00 | 0.00 | 0.00 | 59 | 1011.8 |
| 20260903233504 | 91 | 119 | 8.0 | 18.0 | 0.00 | 0.00 | 0.00 | 58 | 1011.6 |
| 20260903233004 | 92 | 122 | 8.0 | 17.0 | 0.00 | 0.00 | 0.00 | 58 | 1011.5 |
| 20260903232504 | 92 | 120 | 11.0 | 20.0 | 0.00 | 0.00 | 0.00 | 58 | 1011.4 |
| 20260903232004 | 93 | 117 | 10.0 | 20.0 | 0.00 | 0.00 | 0.00 | 57 | 1011.4 |
| 20260903231504 | 93 | 108 | 10.0 | 24.0 | 0.00 | 0.00 | 0.00 | 57 | 1011.4 |
| 20260903231004 | 94 | 111 | 12.0 | 24.0 | 0.00 | 0.00 | 0.00 | 57 | 1011.3 |
| 20260903230525 | 94 | 117 | 13.0 | 25.0 | 0.00 | 0.00 | 0.00 | 58 | 1011.3 |
| 20260903230004 | 94 | 119 | 13.0 | 26.0 | 0.00 | 0.00 | 0.00 | 57 | 1011.4 |
| 20260903225504 | 94 | 117 | 12.0 | 25.0 | 0.00 | 0.00 | 0.00 | 56 | 1011.0 |
| 20260903225004 | 96 | 109 | 13.0 | 26.0 | 0.00 | 0.00 | 0.00 | 53 | 1011.3 |
| 20260903224525 | 96 | 102 | 11.0 | 26.0 | 0.00 | 0.00 | 0.00 | 50 | 1010.9 |
| 20260903224004 | 97 | 102 | 8.0 | 26.0 | 0.00 | 0.00 | 0.00 | 47 | 1010.7 |
| 20260903223504 | 97 | 104 | 8.0 | 23.0 | 0.00 | 0.00 | 0.00 | 47 | 1010.8 |
| 20260903223004 | 96 | 113 | 10.0 | 24.0 | 0.00 | 0.00 | 0.00 | 47 | 1010.7 |
| 20260903222525 | 96 | 114 | 12.0 | 24.0 | 0.00 | 0.00 | 0.00 | 47 | 1010.7 |
| 20260903222004 | 96 | 110 | 11.0 | 28.0 | 0.00 | 0.00 | 0.00 | 47 | 1010.7 |
| 20260903221524 | 97 | 109 | 12.0 | 29.0 | 0.00 | 0.00 | 0.00 | 46 | 1010.7 |
| 20260903221004 | 97 | 108 | 14.0 | 29.0 | 0.00 | 0.00 | 0.00 | 46 | 1010.7 |
| 20260903220504 | 98 | 108 | 13.0 | 29.0 | 0.00 | 0.00 | 0.00 | 46 | 1010.7 |
| 20260903220004 | 99 | 109 | 10.0 | 29.0 | 0.00 | 0.00 | 0.00 | 44 | 1010.7 |
| 20260903215504 | 100 | 117 | 7.0 | 22.0 | 0.00 | 0.00 | 0.00 | 42 | 1010.7 |
| 20260903215004 | 101 | 121 | 8.0 | 19.0 | 0.00 | 0.00 | 0.00 | 42 | 1010.6 |
| 20260903214503 | 101 | 112 | 7.0 | 19.0 | 0.00 | 0.00 | 0.00 | 41 | 1010.5 |
| 20260903214004 | 102 | 109 | 6.0 | 17.0 | 0.00 | 0.00 | 0.00 | 41 | 1010.5 |
| 20260903213504 | 102 | 102 | 5.0 | 17.0 | 0.00 | 0.00 | 0.00 | 41 | 1010.5 |
| 20260903213025 | 102 | 104 | 6.0 | 16.0 | 0.00 | 0.00 | 0.00 | 41 | 1010.6 |
| 20260903212504 | 102 | 119 | 6.0 | 16.0 | 0.00 | 0.00 | 0.00 | 43 | 1010.9 |
| 20260903212025 | 102 | 130 | 6.0 | 16.0 | 0.00 | 0.00 | 0.00 | 42 | 1010.7 |
| 20260903211525 | 102 | 139 | 7.0 | 13.0 | 0.00 | 0.00 | 0.00 | 41 | 1010.7 |
| 20260903211004 | 102 | 130 | 6.0 | 16.0 | 0.00 | 0.00 | 0.00 | 42 | 1010.8 |
| 20260903210504 | 102 | 121 | 4.0 | 16.0 | 0.00 | 0.00 | 0.00 | 42 | 1010.7 |
| 20260903210004 | 103 | 128 | 4.0 | 13.0 | 0.00 | 0.00 | 0.00 | 40 | 1010.8 |
| 20260903205504 | 103 | 138 | 4.0 | 10.0 | 0.00 | 0.00 | 0.00 | 39 | 1010.8 |
| 20260903205004 | 103 | 133 | 5.0 | 11.0 | 0.00 | 0.00 | 0.00 | 39 | 1011.0 |
| 20260903204503 | 104 | 144 | 6.0 | 11.0 | 0.00 | 0.00 | 0.00 | 38 | 1011.1 |
| 20260903204004 | 104 | 136 | 6.0 | 13.0 | 0.00 | 0.00 | 0.00 | 38 | 1011.2 |
| 20260903203504 | 105 | 127 | 7.0 | 17.0 | 0.00 | 0.00 | 0.00 | 38 | 1011.2 |
| 20260903203004 | 106 | 145 | 7.0 | 17.0 | 0.00 | 0.00 | 0.00 | 38 | 1011.3 |
| 20260903202504 | 105 | 154 | 5.0 | 13.0 | 0.00 | 0.00 | 0.00 | 37 | 1011.5 |
| 20260903202004 | 105 | 148 | 5.0 | 13.0 | 0.00 | 0.00 | 0.00 | 38 | 1011.5 |
| 20260903201525 | 105 | 142 | 6.0 | 17.0 | 0.00 | 0.00 | 0.00 | 37 | 1011.5 |
| 20260903201003 | 105 | 157 | 6.0 | 17.0 | 0.00 | 0.00 | 0.00 | 38 | 1011.6 |
| 20260903200503 | 105 | 171 | 5.0 | 14.0 | 0.00 | 0.00 | 0.00 | 38 | 1011.6 |
| 20260903200004 | 104 | 158 | 5.0 | 13.0 | 0.00 | 0.00 | 0.00 | 39 | 1011.7 |
| 20260903195504 | 104 | 181 | 6.0 | 14.0 | 0.00 | 0.00 | 0.00 | 40 | 1011.7 |
| 20260903195004 | 104 | 187 | 7.0 | 14.0 | 0.00 | 0.00 | 0.00 | 40 | 1011.7 |
| 20260903194524 | 104 | 179 | 7.0 | 14.0 | 0.00 | 0.00 | 0.00 | 40 | 1011.7 |
| 20260903194025 | 104 | 167 | 6.0 | 14.0 | 0.00 | 0.00 | 0.00 | 40 | 1011.7 |
| 20260903193504 | 104 | 139 | 7.0 | 14.0 | 0.00 | 0.00 | 0.00 | 42 | 1011.9 |
| 20260903193025 | 103 | 137 | 6.0 | 14.0 | 0.00 | 0.00 | 0.00 | 41 | 1012.0 |
| 20260903192504 | 103 | 190 | 5.0 | 14.0 | 0.00 | 0.00 | 0.00 | 43 | 1012.1 |
| 20260903192004 | 103 | 200 | 6.0 | 14.0 | 0.00 | 0.00 | 0.00 | 41 | 1012.2 |
| 20260903191525 | 103 | 181 | 5.0 | 12.0 | 0.00 | 0.00 | 0.00 | 41 | 1012.2 |
| 20260903191025 | 103 | 148 | 6.0 | 13.0 | 0.00 | 0.00 | 0.00 | 43 | 1012.4 |
| 20260903190504 | 103 | 134 | 8.0 | 16.0 | 0.00 | 0.00 | 0.00 | 44 | 1012.7 |
| 20260903190024 | 103 | 128 | 8.0 | 20.0 | 0.00 | 0.00 | 0.00 | 43 | 1012.5 |
| 20260903185504 | 102 | 162 | 6.0 | 20.0 | 0.00 | 0.00 | 0.00 | 44 | 1012.5 |
| 20260903185025 | 102 | 202 | 6.0 | 14.0 | 0.00 | 0.00 | 0.00 | 45 | 1012.6 |
| 20260903184503 | 102 | 187 | 8.0 | 14.0 | 0.00 | 0.00 | 0.00 | 43 | 1012.7 |
| 20260903184003 | 102 | 152 | 8.0 | 14.0 | 0.00 | 0.00 | 0.00 | 46 | 1012.8 |
| 20260903183504 | 102 | 133 | 6.0 | 14.0 | 0.00 | 0.00 | 0.00 | 45 | 1012.9 |
| 20260903183003 | 101 | 147 | 6.0 | 14.0 | 0.00 | 0.00 | 0.00 | 46 | 1013.0 |
| 20260903182525 | 101 | 157 | 7.0 | 16.0 | 0.00 | 0.00 | 0.00 | 45 | 1013.0 |
| 20260903182003 | 101 | 154 | 7.0 | 16.0 | 0.00 | 0.00 | 0.00 | 45 | 1013.2 |
| 20260903181503 | 100 | 147 | 6.0 | 14.0 | 0.00 | 0.00 | 0.00 | 47 | 1013.3 |
| 20260903181004 | 100 | 148 | 7.0 | 14.0 | 0.00 | 0.00 | 0.00 | 47 | 1013.4 |
| 20260903180504 | 100 | 160 | 7.0 | 14.0 | 0.00 | 0.00 | 0.00 | 48 | 1013.4 |
| 20260903180003 | 99 | 180 | 6.0 | 14.0 | 0.00 | 0.00 | 0.00 | 48 | 1013.4 |
| 20260903175504 | 98 | 187 | 7.0 | 18.0 | 0.00 | 0.00 | 0.00 | 48 | 1013.5 |
| 20260903175003 | 98 | 190 | 7.0 | 18.0 | 0.00 | 0.00 | 0.00 | 49 | 1013.5 |
| 20260903174504 | 98 | 192 | 7.0 | 16.0 | 0.00 | 0.00 | 0.00 | 50 | 1013.5 |
| 20260903174003 | 97 | 191 | 7.0 | 16.0 | 0.00 | 0.00 | 0.00 | 51 | 1013.4 |
| 20260903173503 | 96 | 197 | 7.0 | 17.0 | 0.00 | 0.00 | 0.00 | 51 | 1013.5 |
| 20260903173003 | 96 | 185 | 7.0 | 17.0 | 0.00 | 0.00 | 0.00 | 51 | 1013.6 |
| 20260903172503 | 96 | 167 | 7.0 | 14.0 | 0.00 | 0.00 | 0.00 | 54 | 1013.7 |
| 20260903172004 | 95 | 161 | 8.0 | 18.0 | 0.00 | 0.00 | 0.00 | 54 | 1013.8 |
| 20260903171503 | 95 | 165 | 11.0 | 19.0 | 0.00 | 0.00 | 0.00 | 56 | 1013.9 |
| 20260903171004 | 94 | 177 | 11.0 | 19.0 | 0.00 | 0.00 | 0.00 | 55 | 1014.0 |
| 20260903170504 | 94 | 170 | 8.0 | 16.0 | 0.00 | 0.00 | 0.00 | 54 | 1014.0 |
| 20260903170003 | 94 | 151 | 8.0 | 16.0 | 0.00 | 0.00 | 0.00 | 56 | 1014.1 |
| 20260903165504 | 94 | 147 | 8.0 | 17.0 | 0.00 | 0.00 | 0.00 | 57 | 1014.1 |
| 20260903165025 | 93 | 155 | 8.0 | 17.0 | 0.00 | 0.00 | 0.00 | 59 | 1014.1 |
| 20260903164503 | 93 | 157 | 7.0 | 17.0 | 0.00 | 0.00 | 0.00 | 60 | 1014.2 |
| 20260903164003 | 92 | 160 | 7.0 | 17.0 | 0.00 | 0.00 | 0.00 | 61 | 1014.2 |
| 20260903163503 | 92 | 180 | 7.0 | 18.0 | 0.00 | 0.00 | 0.00 | 60 | 1014.2 |
| 20260903163003 | 92 | 194 | 7.0 | 18.0 | 0.00 | 0.00 | 0.00 | 60 | 1014.2 |
| 20260903162503 | 92 | 204 | 7.0 | 14.0 | 0.00 | 0.00 | 0.00 | 61 | 1014.2 |
| 20260903162003 | 91 | 195 | 8.0 | 19.0 | 0.00 | 0.00 | 0.00 | 61 | 1014.3 |
| 20260903161503 | 91 | 182 | 10.0 | 22.0 | 0.00 | 0.00 | 0.00 | 61 | 1014.2 |
| 20260903161003 | 91 | 175 | 11.0 | 22.0 | 0.00 | 0.00 | 0.00 | 62 | 1014.3 |
| 20260903160503 | 90 | 174 | 10.0 | 18.0 | 0.00 | 0.00 | 0.00 | 63 | 1014.3 |
| 20260903160003 | 90 | 182 | 7.0 | 18.0 | 0.00 | 0.00 | 0.00 | 65 | 1014.3 |
| 20260903155503 | 90 | 193 | 7.0 | 14.0 | 0.00 | 0.00 | 0.00 | 65 | 1014.3 |
| 20260903155003 | 89 | 185 | 8.0 | 18.0 | 0.00 | 0.00 | 0.00 | 66 | 1014.3 |